TimeAKDT,TemperatureF,Dew PointF,Humidity,Sea Level PressureIn,VisibilityMPH,Wind Direction,Wind SpeedMPH,Gust SpeedMPH,PrecipitationIn,Events,Conditions,WindDirDegrees,DateUTC
12:16 AM,46.4,44.6,93,30.43,10.0,Calm,Calm,-,N/A,,Overcast,0,2012-10-06 08:16:00
12:36 AM,46.4,44.6,93,30.43,10.0,Calm,Calm,-,N/A,,Overcast,0,2012-10-06 08:36:00
12:56 AM,48.2,44.6,87,30.42,10.0,Calm,Calm,-,N/A,,Overcast,0,2012-10-06 08:56:00
1:36 AM,46.4,44.6,93,30.42,10.0,Calm,Calm,-,N/A,,Overcast,0,2012-10-06 09:36:00
1:56 AM,48.2,44.6,87,30.43,10.0,Calm,Calm,-,N/A,,Overcast,0,2012-10-06 09:56:00
2:16 AM,48.2,44.6,87,30.42,10.0,Calm,Calm,-,N/A,,Overcast,0,2012-10-06 10:16:00
2:36 AM,48.2,44.6,87,30.42,5.0,Calm,Calm,-,N/A,,Overcast,0,2012-10-06 10:36:00
2:56 AM,46.4,44.6,93,30.42,1.2,Calm,Calm,-,N/A,,Overcast,0,2012-10-06 10:56:00
3:16 AM,46.4,44.6,93,30.42,1.0,Calm,Calm,-,N/A,,Overcast,0,2012-10-06 11:16:00
3:36 AM,48.2,44.6,87,30.41,1.0,Calm,Calm,-,N/A,,Overcast,0,2012-10-06 11:36:00
3:56 AM,48.2,44.6,87,30.41,1.8,West,4.6,-,N/A,,Overcast,280,2012-10-06 11:56:00
4:16 AM,46.4,44.6,93,30.41,5.0,NW,3.5,-,N/A,,Overcast,310,2012-10-06 12:16:00
4:36 AM,46.4,44.6,93,30.40,7.0,NW,4.6,-,N/A,,Overcast,310,2012-10-06 12:36:00
4:56 AM,46.4,44.6,93,30.40,2.0,NW,3.5,-,N/A,,Overcast,310,2012-10-06 12:56:00
5:16 AM,46.4,44.6,93,30.40,0.5,Calm,Calm,-,N/A,,Overcast,0,2012-10-06 13:16:00
5:36 AM,46.4,44.6,93,30.40,3.0,Calm,Calm,-,N/A,,Overcast,0,2012-10-06 13:36:00
5:56 AM,46.4,44.6,93,30.41,10.0,Calm,Calm,-,N/A,,Overcast,0,2012-10-06 13:56:00
6:16 AM,48.2,44.6,87,30.41,10.0,WNW,3.5,-,N/A,,Overcast,300,2012-10-06 14:16:00
6:36 AM,48.2,44.6,87,30.41,10.0,Calm,Calm,-,N/A,,Overcast,0,2012-10-06 14:36:00
6:56 AM,48.2,44.6,87,30.41,10.0,Calm,Calm,-,N/A,,Overcast,0,2012-10-06 14:56:00
7:16 AM,48.2,44.6,87,30.41,3.0,West,3.5,-,N/A,,Overcast,280,2012-10-06 15:16:00
7:36 AM,48.2,46.4,93,30.41,3.0,WNW,5.8,-,N/A,,Overcast,300,2012-10-06 15:36:00
7:56 AM,48.2,44.6,87,30.41,3.0,WNW,3.5,-,N/A,,Overcast,290,2012-10-06 15:56:00
8:16 AM,48.2,44.6,87,30.41,3.0,West,3.5,-,N/A,,Overcast,280,2012-10-06 16:16:00
8:36 AM,48.2,44.6,87,30.41,3.0,West,3.5,-,N/A,,Overcast,270,2012-10-06 16:36:00
8:56 AM,48.2,46.4,93,30.41,3.0,SW,3.5,-,N/A,,Overcast,230,2012-10-06 16:56:00
9:16 AM,48.2,46.4,93,30.41,3.0,NW,3.5,-,N/A,,Overcast,310,2012-10-06 17:16:00
9:36 AM,48.2,46.4,93,30.41,3.0,WNW,4.6,-,N/A,,Overcast,290,2012-10-06 17:36:00
9:56 AM,48.2,46.4,93,30.41,3.0,SW,3.5,-,N/A,,Overcast,230,2012-10-06 17:56:00
10:16 AM,48.2,46.4,93,30.41,3.0,Calm,Calm,-,N/A,,Overcast,0,2012-10-06 18:16:00
10:36 AM,48.2,46.4,93,30.41,3.0,Calm,Calm,-,N/A,,Overcast,0,2012-10-06 18:36:00
10:56 AM,48.2,46.4,93,30.40,7.0,NW,3.5,-,N/A,,Overcast,310,2012-10-06 18:56:00
11:16 AM,50.0,46.4,87,30.40,7.0,NW,3.5,-,N/A,,Mostly Cloudy,310,2012-10-06 19:16:00
11:36 AM,50.0,46.4,87,30.40,7.0,WNW,4.6,-,N/A,,Mostly Cloudy,300,2012-10-06 19:36:00
11:56 AM,51.8,46.4,82,30.40,7.0,NW,4.6,-,N/A,,Mostly Cloudy,310,2012-10-06 19:56:00
12:16 PM,51.8,46.4,82,30.40,10.0,WNW,4.6,-,N/A,,Mostly Cloudy,300,2012-10-06 20:16:00
12:36 PM,53.6,48.2,82,30.40,10.0,NW,5.8,-,N/A,,Mostly Cloudy,320,2012-10-06 20:36:00
12:56 PM,53.6,46.4,77,30.40,10.0,WNW,5.8,-,N/A,,Mostly Cloudy,300,2012-10-06 20:56:00
1:16 PM,51.8,46.4,82,30.39,10.0,NW,3.5,-,N/A,,Mostly Cloudy,310,2012-10-06 21:16:00
1:36 PM,51.8,46.4,82,30.38,10.0,NNW,4.6,-,N/A,,Mostly Cloudy,330,2012-10-06 21:36:00
1:56 PM,51.8,46.4,82,30.38,10.0,NNW,4.6,-,N/A,,Scattered Clouds,330,2012-10-06 21:56:00
2:16 PM,53.6,46.4,77,30.37,10.0,Calm,Calm,-,N/A,,Scattered Clouds,0,2012-10-06 22:16:00
2:36 PM,53.6,46.4,77,30.37,10.0,Calm,Calm,-,N/A,,Scattered Clouds,0,2012-10-06 22:36:00
2:56 PM,53.6,46.4,77,30.37,10.0,Calm,Calm,-,N/A,,Clear,0,2012-10-06 22:56:00
3:16 PM,53.6,46.4,77,30.37,10.0,NNW,3.5,-,N/A,,Partly Cloudy,340,2012-10-06 23:16:00
3:36 PM,53.6,46.4,77,30.36,10.0,Calm,Calm,-,N/A,,Partly Cloudy,0,2012-10-06 23:36:00
3:56 PM,51.8,46.4,82,30.36,10.0,NNW,3.5,-,N/A,,Partly Cloudy,340,2012-10-06 23:56:00
4:16 PM,51.8,46.4,82,30.35,10.0,NNW,5.8,-,N/A,,Partly Cloudy,330,2012-10-07 00:16:00
4:36 PM,51.8,46.4,82,30.35,10.0,NNW,3.5,-,N/A,,Partly Cloudy,330,2012-10-07 00:36:00
4:56 PM,50.0,46.4,87,30.35,10.0,NW,5.8,-,N/A,,Clear,320,2012-10-07 00:56:00
5:16 PM,50.0,46.4,87,30.35,10.0,NW,3.5,-,N/A,,Clear,310,2012-10-07 01:16:00
5:36 PM,48.2,44.6,87,30.35,10.0,NW,3.5,-,N/A,,Clear,320,2012-10-07 01:36:00
5:56 PM,48.2,44.6,87,30.34,10.0,NNW,5.8,-,N/A,,Clear,340,2012-10-07 01:56:00
6:16 PM,48.2,44.6,87,30.35,10.0,NW,4.6,-,N/A,,Clear,320,2012-10-07 02:16:00
6:36 PM,48.2,44.6,87,30.35,10.0,WNW,6.9,-,N/A,,Clear,300,2012-10-07 02:36:00
6:56 PM,48.2,44.6,87,30.35,10.0,NNW,4.6,-,N/A,,Clear,340,2012-10-07 02:56:00
7:16 PM,48.2,44.6,87,30.35,10.0,Calm,Calm,-,N/A,,Clear,0,2012-10-07 03:16:00
7:36 PM,46.4,44.6,93,30.34,10.0,WNW,3.5,-,N/A,,Clear,290,2012-10-07 03:36:00
7:56 PM,46.4,44.6,93,30.34,10.0,NW,3.5,-,N/A,,Clear,320,2012-10-07 03:56:00
8:16 PM,46.4,44.6,93,30.33,10.0,NNE,4.6,-,N/A,,Clear,20,2012-10-07 04:16:00
8:36 PM,46.4,44.6,93,30.33,10.0,Calm,Calm,-,N/A,,Clear,0,2012-10-07 04:36:00
8:56 PM,46.4,42.8,87,30.33,10.0,Calm,Calm,-,N/A,,Clear,0,2012-10-07 04:56:00
9:16 PM,46.4,42.8,87,30.34,10.0,Calm,Calm,-,N/A,,Clear,0,2012-10-07 05:16:00
9:36 PM,46.4,42.8,87,30.34,10.0,Calm,Calm,-,N/A,,Clear,0,2012-10-07 05:36:00
9:56 PM,46.4,42.8,87,30.34,10.0,NNW,3.5,-,N/A,,Clear,330,2012-10-07 05:56:00
10:16 PM,44.6,42.8,93,30.34,10.0,NW,4.6,-,N/A,,Clear,320,2012-10-07 06:16:00
10:36 PM,44.6,42.8,93,30.34,10.0,NW,3.5,-,N/A,,Clear,310,2012-10-07 06:36:00
10:56 PM,46.4,42.8,87,30.33,10.0,Calm,Calm,-,N/A,,Clear,0,2012-10-07 06:56:00
11:16 PM,44.6,42.8,93,30.33,10.0,Calm,Calm,-,N/A,,Clear,0,2012-10-07 07:16:00
11:36 PM,44.6,42.8,93,30.33,10.0,Calm,Calm,-,N/A,,Clear,0,2012-10-07 07:36:00
11:56 PM,46.4,42.8,87,30.33,3.0,Calm,Calm,-,N/A,,Mostly Cloudy,0,2012-10-07 07:56:00